| time (UTC) | temp F | wind direction | speed MPH | gust MPH | rain 1hr in | rain 24hr in | rain mn in | humidity % | barometer mb |
| 20260504034554 | 52 | 329 | 14.0 | 20.0 | 0.00 | 0.00 | 0.00 | 44 | 1001.1 |
| 20260504033101 | 52 | 317 | 12.0 | 18.0 | 0.00 | 0.00 | 0.00 | 44 | 1000.8 |
| 20260504033004 | 52 | 313 | 12.0 | 18.0 | 0.00 | 0.00 | 0.00 | 43 | 1000.6 |
| 20260504031516 | 53 | 327 | 13.0 | 19.0 | 0.00 | 0.00 | 0.00 | 42 | 1000.3 |
| 20260504030031 | 53 | 328 | 14.0 | 23.0 | 0.00 | 0.00 | 0.00 | 42 | 1000.3 |
| 20260504024544 | 54 | 309 | 16.0 | 23.0 | 0.00 | 0.00 | 0.00 | 42 | 1000.2 |
| 20260504023055 | 54 | 329 | 20.0 | 26.0 | 0.00 | 0.00 | 0.00 | 41 | 1000.0 |
| 20260504021508 | 55 | 327 | 16.0 | 27.0 | 0.00 | 0.00 | 0.00 | 40 | 999.7 |
| 20260504020023 | 55 | 315 | 21.0 | 31.0 | 0.00 | 0.00 | 0.00 | 39 | 999.7 |
| 20260504014538 | 55 | 325 | 21.0 | 37.0 | 0.00 | 0.00 | 0.00 | 39 | 999.7 |
| 20260504013051 | 57 | 328 | 26.0 | 36.0 | 0.00 | 0.00 | 0.00 | 39 | 999.5 |
| 20260504011505 | 59 | 335 | 20.0 | 35.0 | 0.00 | 0.00 | 0.00 | 38 | 999.0 |
| 20260504010023 | 60 | 335 | 23.0 | 34.0 | 0.00 | 0.00 | 0.00 | 38 | 998.6 |
| 20260504004531 | 60 | 355 | 28.0 | 42.0 | 0.00 | 0.00 | 0.00 | 36 | 998.6 |
| 20260504003049 | 62 | 323 | 26.0 | 37.0 | 0.00 | 0.00 | 0.00 | 30 | 998.3 |
| 20260504001559 | 64 | 323 | 24.0 | 33.0 | 0.00 | 0.00 | 0.00 | 30 | 998.0 |
| 20260504001501 | 64 | 317 | 24.0 | 33.0 | 0.00 | 0.00 | 0.00 | 30 | 997.9 |
| 20260504000014 | 64 | 304 | 27.0 | 36.0 | 0.00 | 0.00 | 0.00 | 29 | 997.8 |
| 20260503234527 | 64 | 323 | 28.0 | 38.0 | 0.00 | 0.00 | 0.00 | 30 | 997.8 |
| 20260503233041 | 64 | 323 | 28.0 | 41.0 | 0.00 | 0.00 | 0.00 | 30 | 997.7 |
| 20260503231549 | 66 | 327 | 29.0 | 38.0 | 0.00 | 0.00 | 0.00 | 28 | 997.4 |
| 20260503230003 | 66 | 348 | 26.0 | 39.0 | 0.00 | 0.00 | 0.00 | 26 | 996.6 |
| 20260503224514 | 68 | 327 | 28.0 | 37.0 | 0.00 | 0.00 | 0.00 | 27 | 996.4 |
| 20260503223025 | 68 | 319 | 26.0 | 38.0 | 0.00 | 0.00 | 0.00 | 27 | 996.4 |
| 20260503221539 | 69 | 341 | 28.0 | 36.0 | 0.00 | 0.00 | 0.00 | 28 | 996.2 |
| 20260503220059 | 71 | 360 | 23.0 | 34.0 | 0.00 | 0.00 | 0.00 | 27 | 996.1 |
| 20260503214516 | 70 | 320 | 25.0 | 35.0 | 0.00 | 0.00 | 0.00 | 28 | 995.9 |
| 20260503213027 | 69 | 314 | 25.0 | 34.0 | 0.00 | 0.00 | 0.00 | 33 | 995.9 |
| 20260503211546 | 70 | 309 | 24.0 | 34.0 | 0.00 | 0.00 | 0.00 | 32 | 995.9 |
| 20260503210058 | 70 | 294 | 24.0 | 32.0 | 0.00 | 0.00 | 0.00 | 31 | 995.9 |
| 20260503204516 | 70 | 306 | 19.0 | 34.0 | 0.00 | 0.00 | 0.00 | 33 | 996.1 |
| 20260503203032 | 71 | 293 | 25.0 | 39.0 | 0.00 | 0.00 | 0.00 | 30 | 996.1 |
| 20260503201543 | 72 | 304 | 20.0 | 31.0 | 0.00 | 0.00 | 0.00 | 34 | 996.1 |
| 20260503200052 | 71 | 296 | 20.0 | 33.0 | 0.00 | 0.00 | 0.00 | 32 | 996.3 |
| 20260503194511 | 72 | 292 | 19.0 | 31.0 | 0.00 | 0.00 | 0.00 | 31 | 996.8 |
| 20260503193018 | 71 | 270 | 19.0 | 31.0 | 0.00 | 0.00 | 0.00 | 31 | 997.2 |
| 20260503191534 | 70 | 305 | 23.0 | 32.0 | 0.00 | 0.00 | 0.00 | 31 | 997.2 |
| 20260503190048 | 72 | 267 | 18.0 | 28.0 | 0.00 | 0.00 | 0.00 | 31 | 997.4 |
| 20260503184624 | 70 | 292 | 20.0 | 27.0 | 0.00 | 0.00 | 0.00 | 29 | 998.0 |
| 20260503183012 | 70 | 286 | 19.0 | 26.0 | 0.00 | 0.00 | 0.00 | 32 | 998.5 |
| 20260503181532 | 68 | 292 | 15.0 | 26.0 | 0.00 | 0.00 | 0.00 | 32 | 998.5 |
| 20260503180011 | 68 | 281 | 16.0 | 27.0 | 0.00 | 0.00 | 0.00 | 34 | 999.1 |
| 20260503174532 | 68 | 278 | 18.0 | 24.0 | 0.00 | 0.00 | 0.00 | 33 | 999.1 |
| 20260503173037 | 68 | 297 | 13.0 | 21.0 | 0.00 | 0.00 | 0.00 | 36 | 999.1 |
| 20260503171611 | 67 | 298 | 15.0 | 21.0 | 0.00 | 0.00 | 0.00 | 35 | 999.1 |
| 20260503081506 | 39 | 124 | 5.0 | 7.0 | 0.00 | 0.00 | 0.00 | 63 | 1004.8 |
| 20260503071611 | 41 | 131 | 6.0 | 8.0 | 0.00 | 0.00 | 0.00 | 60 | 1005.3 |
| 20260503060104 | 43 | 132 | 4.0 | 7.0 | 0.00 | 0.00 | 0.00 | 55 | 1005.7 |
| 20260503054503 | 42 | 105 | 4.0 | 7.0 | 0.00 | 0.00 | 0.00 | 56 | 1005.7 |
| 20260503053028 | 43 | 94 | 4.0 | 6.0 | 0.00 | 0.00 | 0.00 | 55 | 1005.8 |
| 20260503051533 | 44 | 100 | 3.0 | 6.0 | 0.00 | 0.00 | 0.00 | 52 | 1005.8 |
| 20260503050048 | 48 | 150 | 2.0 | 4.0 | 0.00 | 0.00 | 0.00 | 49 | 1005.8 |
| 20260503044503 | 48 | 159 | 2.0 | 5.0 | 0.00 | 0.00 | 0.00 | 49 | 1005.8 |
| 20260503043036 | 50 | 102 | 3.0 | 4.0 | 0.00 | 0.00 | 0.00 | 48 | 1005.9 |
| 20260503041529 | 51 | 298 | 0.0 | 2.0 | 0.00 | 0.00 | 0.00 | 45 | 1005.9 |
| 20260503040042 | 51 | 299 | 1.0 | 2.0 | 0.00 | 0.00 | 0.00 | 46 | 1005.9 |